| time (UTC) | temp C | wind direction | speed KPH | gust KPH | rain 1hr cm | rain 24hr cm | rain mn cm | humidity % | barometer mb |
| 20260507103050 | -1 | 154 | 3.2 | 6.4 | 0.00 | 0.00 | 0.00 | 80 | 1011.5 |
| 20260507101607 | -1 | 154 | 4.8 | 8.0 | 0.00 | 0.00 | 0.00 | 80 | 1011.5 |
| 20260507100042 | -1 | 154 | 6.4 | 11.3 | 0.00 | 0.00 | 0.00 | 80 | 1011.5 |
| 20260507094624 | -1 | 154 | 6.4 | 11.3 | 0.00 | 0.00 | 0.00 | 79 | 1011.6 |
| 20260507093031 | -1 | 155 | 8.0 | 12.9 | 0.00 | 0.00 | 0.00 | 78 | 1011.7 |
| 20260507091547 | -1 | 157 | 4.8 | 11.3 | 0.00 | 0.00 | 0.00 | 77 | 1011.8 |
| 20260507090000 | -1 | 155 | 8.0 | 12.9 | 0.00 | 0.00 | 0.00 | 75 | 1011.9 |
| 20260507084549 | 0 | 148 | 11.3 | 16.1 | 0.00 | 0.00 | 0.00 | 74 | 1011.9 |
| 20260507083017 | 0 | 154 | 11.3 | 17.7 | 0.00 | 0.00 | 0.00 | 73 | 1011.9 |
| 20260507081540 | 0 | 150 | 11.3 | 16.1 | 0.00 | 0.00 | 0.00 | 72 | 1011.9 |
| 20260507080006 | 0 | 154 | 8.0 | 16.1 | 0.00 | 0.00 | 0.00 | 70 | 1012.0 |
| 20260507074546 | 1 | 155 | 12.9 | 19.3 | 0.00 | 0.00 | 0.00 | 68 | 1012.1 |
| 20260507073041 | 1 | 154 | 14.5 | 20.9 | 0.00 | 0.00 | 0.00 | 65 | 1012.2 |
| 20260507071512 | 2 | 360 | 12.9 | 22.5 | 0.00 | 0.00 | 0.00 | 65 | 1012.3 |
| 20260507070054 | 2 | 360 | 16.1 | 24.1 | 0.00 | 0.00 | 0.00 | 65 | 1012.3 |
| 20260507064608 | 2 | 360 | 17.7 | 24.1 | 0.00 | 0.00 | 0.00 | 66 | 1012.4 |
| 20260507063032 | 2 | 360 | 14.5 | 0.0 | 4.37 | 0.00 | 0.00 | 66 | 1012.5 |
| 20260507061608 | 2 | 136 | 11.3 | 19.3 | 0.00 | 0.00 | 0.00 | 64 | 1012.7 |
| 20260507060107 | 2 | 129 | 11.3 | 19.3 | 0.00 | 0.00 | 0.00 | 64 | 1012.7 |
| 20260507054538 | 2 | 119 | 11.3 | 17.7 | 0.00 | 0.00 | 0.00 | 65 | 1012.5 |
| 20260507053104 | 2 | 117 | 8.0 | 14.5 | 0.00 | 0.00 | 0.00 | 65 | 1012.6 |
| 20260507051525 | 2 | 130 | 14.5 | 19.3 | 0.00 | 0.00 | 0.00 | 65 | 1012.5 |
| 20260507050036 | 2 | 119 | 9.7 | 16.1 | 0.00 | 0.00 | 0.00 | 65 | 1012.8 |
| 20260507044520 | 3 | 121 | 6.4 | 12.9 | 0.00 | 0.00 | 0.00 | 63 | 1013.0 |
| 20260507043012 | 3 | 118 | 11.3 | 17.7 | 0.00 | 0.00 | 0.00 | 62 | 1012.9 |
| 20260507041512 | 4 | 103 | 4.8 | 12.9 | 0.00 | 0.00 | 0.00 | 60 | 1013.1 |
| 20260507040013 | 5 | 105 | 6.4 | 12.9 | 0.00 | 0.00 | 0.00 | 60 | 1013.2 |
| 20260507034511 | 5 | 94 | 6.4 | 14.5 | 0.00 | 0.00 | 0.00 | 58 | 1013.3 |
| 20260507033008 | 5 | 104 | 3.2 | 11.3 | 0.00 | 0.00 | 0.00 | 57 | 1013.3 |
| 20260507031509 | 6 | 94 | 0.0 | 4.8 | 0.00 | 0.00 | 0.00 | 55 | 1013.4 |
| 20260507030009 | 6 | 95 | 1.6 | 8.0 | 0.00 | 0.00 | 0.00 | 52 | 1013.5 |
| 20260507024507 | 7 | 94 | 1.6 | 11.3 | 0.00 | 0.00 | 0.00 | 48 | 1013.5 |
| 20260507023038 | 7 | 20 | 0.0 | 6.4 | 0.00 | 0.00 | 0.00 | 45 | 1013.5 |
| 20260507021556 | 8 | 17 | 1.6 | 6.4 | 0.00 | 0.00 | 0.00 | 43 | 1013.4 |
| 20260507020110 | 8 | 355 | 0.0 | 3.2 | 0.00 | 0.00 | 0.00 | 43 | 1013.4 |
| 20260507014533 | 8 | 355 | 0.0 | 0.0 | 0.00 | 0.00 | 0.00 | 42 | 1013.3 |
| 20260507013108 | 9 | 355 | 0.0 | 9.7 | 0.00 | 0.00 | 0.00 | 41 | 1013.3 |
| 20260507011532 | 9 | 344 | 0.0 | 3.2 | 0.00 | 0.00 | 0.00 | 40 | 1013.3 |
| 20260507010059 | 10 | 344 | 1.6 | 8.0 | 0.00 | 0.00 | 0.00 | 39 | 1013.3 |
| 20260507004608 | 10 | 5 | 0.0 | 9.7 | 0.00 | 0.00 | 0.00 | 38 | 1013.3 |
| 20260507003025 | 10 | 318 | 3.2 | 11.3 | 0.00 | 0.00 | 0.00 | 38 | 1013.5 |
| 20260507001607 | 10 | 319 | 4.8 | 14.5 | 0.00 | 0.00 | 0.00 | 39 | 1013.6 |
| 20260507000150 | 10 | 323 | 6.4 | 16.1 | 0.00 | 0.00 | 0.00 | 41 | 1013.8 |
| 20260506234540 | 11 | 244 | 3.2 | 16.1 | 0.00 | 0.00 | 0.00 | 37 | 1013.8 |
| 20260506233100 | 11 | 349 | 4.8 | 17.7 | 0.00 | 0.00 | 0.00 | 39 | 1014.0 |
| 20260506231525 | 11 | 5 | 11.3 | 20.9 | 0.00 | 0.00 | 0.00 | 38 | 1014.1 |
| 20260506230048 | 11 | 325 | 11.3 | 22.5 | 0.00 | 0.00 | 0.00 | 37 | 1014.2 |
| 20260506224507 | 11 | 341 | 9.7 | 22.5 | 0.00 | 0.00 | 0.00 | 38 | 1014.3 |
| 20260506223100 | 11 | 346 | 4.8 | 14.5 | 0.00 | 0.00 | 0.00 | 39 | 1014.5 |
| 20260506221526 | 10 | 355 | 9.7 | 19.3 | 0.00 | 0.00 | 0.00 | 40 | 1014.6 |
| 20260506220003 | 10 | 323 | 3.2 | 19.3 | 0.00 | 0.00 | 0.00 | 44 | 1014.8 |
| 20260506214545 | 10 | 280 | 4.8 | 25.7 | 0.00 | 0.00 | 0.00 | 42 | 1015.0 |
| 20260506213006 | 10 | 302 | 3.2 | 17.7 | 0.00 | 0.00 | 0.00 | 42 | 1015.3 |
| 20260506211534 | 10 | 319 | 8.0 | 14.5 | 0.00 | 0.00 | 0.00 | 44 | 1015.4 |
| 20260506210045 | 10 | 309 | 11.3 | 27.4 | 0.00 | 0.00 | 0.00 | 41 | 1015.7 |
| 20260506204508 | 10 | 299 | 9.7 | 19.3 | 0.00 | 0.00 | 0.00 | 42 | 1015.8 |
| 20260506203037 | 10 | 319 | 9.7 | 24.1 | 0.00 | 0.00 | 0.00 | 40 | 1016.0 |
| 20260506201603 | 10 | 319 | 8.0 | 24.1 | 0.00 | 0.00 | 0.00 | 42 | 1016.1 |
| 20260506200026 | 9 | 5 | 11.3 | 22.5 | 0.00 | 0.00 | 0.00 | 44 | 1016.4 |
| 20260506194624 | 10 | 326 | 11.3 | 20.9 | 0.00 | 0.00 | 0.00 | 43 | 1016.5 |
| 20260506193024 | 9 | 323 | 9.7 | 17.7 | 0.00 | 0.00 | 0.00 | 47 | 1016.9 |
| 20260506191559 | 8 | 304 | 14.5 | 24.1 | 0.00 | 0.00 | 0.00 | 44 | 1017.0 |
| 20260506190026 | 9 | 326 | 11.3 | 22.5 | 0.00 | 0.00 | 0.00 | 47 | 1017.1 |
| 20260506184611 | 9 | 303 | 11.3 | 22.5 | 0.00 | 0.00 | 0.00 | 46 | 1017.2 |
| 20260506183134 | 8 | 284 | 8.0 | 20.9 | 0.00 | 0.00 | 0.00 | 46 | 1017.3 |
| 20260506181559 | 8 | 340 | 11.3 | 24.1 | 0.00 | 0.00 | 0.00 | 45 | 1017.4 |
| 20260506180017 | 8 | 298 | 11.3 | 25.7 | 0.00 | 0.00 | 0.00 | 49 | 1017.7 |
| 20260506174547 | 7 | 13 | 6.4 | 22.5 | 0.00 | 0.00 | 0.00 | 49 | 1017.9 |
| 20260506173009 | 7 | 267 | 6.4 | 16.1 | 0.00 | 0.00 | 0.00 | 48 | 1018.1 |
| 20260506171545 | 7 | 298 | 9.7 | 25.7 | 0.00 | 0.00 | 0.00 | 51 | 1018.3 |
| 20260506170008 | 7 | 306 | 11.3 | 27.4 | 0.00 | 0.00 | 0.00 | 48 | 1018.5 |
| 20260506164550 | 7 | 331 | 8.0 | 20.9 | 0.00 | 0.00 | 0.00 | 50 | 1018.4 |
| 20260506163012 | 7 | 338 | 9.7 | 22.5 | 0.00 | 0.00 | 0.00 | 51 | 1018.6 |
| 20260506161601 | 6 | 342 | 12.9 | 22.5 | 0.00 | 0.00 | 0.00 | 50 | 1018.6 |
| 20260506160027 | 7 | 307 | 4.8 | 17.7 | 0.00 | 0.00 | 0.00 | 51 | 1018.6 |
| 20260506154607 | 6 | 337 | 11.3 | 19.3 | 0.00 | 0.00 | 0.00 | 51 | 1018.6 |
| 20260506153107 | 6 | 290 | 6.4 | 17.7 | 0.00 | 0.00 | 0.00 | 54 | 1018.9 |
| 20260506151535 | 6 | 319 | 6.4 | 11.3 | 0.00 | 0.00 | 0.00 | 57 | 1018.9 |
| 20260506150112 | 5 | 332 | 0.0 | 11.3 | 0.00 | 0.00 | 0.00 | 57 | 1018.9 |
| 20260506144642 | 5 | 351 | 0.0 | 4.8 | 0.00 | 0.00 | 0.00 | 58 | 1019.1 |
| 20260506143103 | 4 | 355 | 4.8 | 11.3 | 0.00 | 0.00 | 0.00 | 60 | 1019.1 |
| 20260506141524 | 3 | 360 | 0.0 | 6.4 | 0.00 | 0.00 | 0.00 | 68 | 1019.1 |
| 20260506134545 | 1 | 360 | 0.0 | 8.0 | 0.00 | 0.00 | 0.00 | 75 | 1019.1 |
| 20260506133009 | 1 | 360 | 1.6 | 8.0 | 0.00 | 0.00 | 0.00 | 75 | 1019.2 |
| 20260506131538 | 0 | 360 | 0.0 | 6.4 | 0.00 | 0.00 | 0.00 | 76 | 1019.0 |
| 20260506130012 | 0 | 360 | 3.2 | 8.0 | 0.00 | 0.00 | 0.00 | 80 | 1019.0 |
| 20260506124552 | -1 | 360 | 0.0 | 1.6 | 0.00 | 0.00 | 0.00 | 87 | 1018.9 |
| 20260506123013 | -2 | 360 | 0.0 | 0.0 | 0.00 | 0.00 | 0.00 | 89 | 1018.8 |
| 20260506121542 | -3 | 360 | 0.0 | 0.0 | 0.00 | 0.00 | 0.00 | 86 | 1018.7 |
| 20260506120011 | -4 | 360 | 0.0 | 0.0 | 0.00 | 0.00 | 0.00 | 84 | 1018.4 |
| 20260506114547 | -3 | 360 | 0.0 | 0.0 | 0.00 | 0.00 | 0.00 | 83 | 1018.3 |
| 20260506113015 | -2 | 360 | 0.0 | 0.0 | 0.00 | 0.00 | 0.00 | 84 | 1018.3 |
| 20260506111553 | -2 | 360 | 0.0 | 1.6 | 0.00 | 0.00 | 0.00 | 85 | 1018.2 |
| 20260506104528 | -1 | 360 | 0.0 | 0.0 | 0.00 | 0.00 | 0.00 | 83 | 1018.1 |